CW9873 Weather Reports


Display with metric or nautical units.
time (UTC)temp
F
wind
direction
speed
MPH
gust
MPH
rain 1hr
in
rain 24hr
in
rain mn
in
humidity
%
barometer
mb
20260506221940 55 210 5.0 12.0 0.08 0.17 0.17 91 1007.1
20260506221440 55 173 4.0 11.0 0.08 0.16 0.16 91 1007.1
20260506220941 55 248 5.0 14.0 0.07 0.15 0.15 91 1007.2
20260506220441 55 165 5.0 15.0 0.07 0.14 0.14 91 1007.2
20260506215941 55 227 5.0 16.0 0.06 0.13 0.13 91 1007.3
20260506215718 55 219 5.0 16.0 0.05 0.12 0.12 91 1007.3
20260506214942 55 192 5.0 15.0 0.04 0.11 0.11 91 1007.3
20260506214442 55 235 4.0 12.0 0.04 0.11 0.11 90 1007.5
20260506214211 55 240 5.0 15.0 0.03 0.10 0.10 90 1007.5
20260506213717 56 175 5.0 15.0 0.03 0.10 0.09 90 1007.6
20260506212936 56 207 6.0 14.0 0.03 0.09 0.09 90 1007.6
20260506212714 56 201 6.0 14.0 0.03 0.09 0.09 90 1007.6
20260506211934 56 270 5.0 14.0 0.03 0.09 0.09 90 1007.6
20260506211433 56 210 5.0 14.0 0.02 0.08 0.08 90 1007.8
20260506210934 56 186 5.0 12.0 0.02 0.08 0.08 90 1007.7
20260506210434 56 229 5.0 14.0 0.02 0.07 0.07 90 1007.8
20260506205437 56 175 7.0 17.0 0.02 0.07 0.07 90 1007.8
20260506204432 56 186 7.0 20.0 0.02 0.07 0.07 90 1008.0
20260506203930 56 240 6.0 20.0 0.02 0.07 0.07 89 1008.0
20260506203430 56 219 6.0 19.0 0.02 0.07 0.06 89 1008.1
20260506202932 56 220 5.0 19.0 0.02 0.06 0.06 89 1008.1
20260506202431 56 225 5.0 11.0 0.03 0.06 0.06 89 1008.1
20260506201929 56 154 5.0 17.0 0.04 0.06 0.06 89 1008.1
20260506201429 56 102 6.0 17.0 0.05 0.06 0.06 89 1008.2
20260506200929 57 244 5.0 15.0 0.06 0.06 0.06 89 1008.2
20260506200430 57 199 5.0 14.0 0.05 0.05 0.05 89 1008.2
20260506195931 57 182 6.0 20.0 0.05 0.05 0.05 89 1008.4
20260506195428 57 252 6.0 20.0 0.05 0.05 0.05 89 1008.2
20260506194925 57 227 6.0 15.0 0.05 0.05 0.05 89 1008.3
20260506194416 57 170 6.0 16.0 0.05 0.05 0.05 88 1008.4
20260506193914 57 160 5.0 16.0 0.05 0.05 0.05 89 1008.3
20260506193410 57 125 5.0 12.0 0.05 0.05 0.05 88 1008.4
20260506192923 57 219 6.0 19.0 0.04 0.04 0.04 88 1008.5
20260506192142 57 227 4.0 12.0 0.02 0.02 0.02 86 1008.6
20260506190913 58 196 5.0 14.0 0.00 0.00 0.00 85 1008.6
20260506190411 59 236 6.0 16.0 0.00 0.00 0.00 84 1008.9
20260506185410 60 147 7.0 16.0 0.00 0.00 0.00 82 1008.9
20260506185143 60 103 6.0 16.0 0.00 0.00 0.00 80 1008.9
20260506184410 60 219 6.0 15.0 0.00 0.00 0.00 80 1009.0
20260506184139 60 129 8.0 19.0 0.00 0.00 0.00 80 1009.0
20260506183412 61 212 7.0 19.0 0.00 0.00 0.00 80 1009.0
20260506182908 61 177 6.0 15.0 0.00 0.00 0.00 80 1009.0
20260506182410 61 168 7.0 15.0 0.00 0.00 0.00 79 1009.0
20260506182143 61 201 7.0 16.0 0.00 0.00 0.00 80 1009.2
20260506181409 62 188 7.0 18.0 0.00 0.00 0.00 79 1009.2
20260506181138 62 262 7.0 19.0 0.00 0.00 0.00 79 1009.4
20260506180408 62 200 8.0 24.0 0.00 0.00 0.00 79 1009.4
20260506175908 62 205 9.0 24.0 0.00 0.00 0.00 79 1009.3
20260506175408 62 165 7.0 17.0 0.00 0.00 0.00 79 1009.4
20260506174911 62 204 5.0 16.0 0.00 0.00 0.00 78 1009.4
20260506174408 62 149 6.0 21.0 0.00 0.00 0.00 78 1009.6
20260506173908 62 231 9.0 21.0 0.00 0.00 0.00 79 1009.7
20260506173409 62 229 9.0 20.0 0.00 0.00 0.00 78 1009.7
20260506172908 63 278 8.0 20.0 0.00 0.00 0.00 78 1009.8
20260506172410 63 205 8.0 20.0 0.00 0.00 0.00 77 1010.0
20260506171907 64 213 7.0 20.0 0.00 0.00 0.00 77 1010.2
20260506171409 64 196 7.0 23.0 0.00 0.00 0.00 77 1010.0
20260506170910 64 219 9.0 23.0 0.00 0.00 0.00 77 1009.9
20260506170409 64 188 8.0 22.0 0.00 0.00 0.00 76 1009.8
20260506165908 65 193 8.0 20.0 0.00 0.00 0.00 76 1009.9
20260506165410 64 151 9.0 20.0 0.00 0.00 0.00 77 1010.0
20260506164408 65 222 7.0 19.0 0.00 0.00 0.00 75 1010.1
20260506163908 64 171 7.0 19.0 0.00 0.00 0.00 77 1010.2
20260506163404 63 180 7.0 15.0 0.00 0.00 0.00 78 1010.4
20260506162906 63 242 6.0 21.0 0.00 0.00 0.00 78 1010.6
20260506162417 63 203 5.0 21.0 0.00 0.00 0.00 78 1010.4
20260506161905 63 233 6.0 13.0 0.00 0.00 0.00 78 1010.5
20260506161404 62 196 6.0 14.0 0.00 0.00 0.00 79 1010.7
20260506160904 62 209 5.0 18.0 0.00 0.00 0.00 78 1010.8
20260506160405 63 209 7.0 21.0 0.00 0.00 0.00 78 1010.7
20260506155902 63 113 6.0 21.0 0.00 0.00 0.00 77 1010.8
20260506155405 64 228 6.0 24.0 0.00 0.00 0.00 76 1011.0
20260506154408 65 196 7.0 21.0 0.00 0.00 0.00 74 1010.8
20260506153904 67 213 6.0 17.0 0.00 0.00 0.00 73 1010.7
20260506153403 67 205 5.0 16.0 0.00 0.00 0.00 72 1010.9
20260506152903 67 157 6.0 16.0 0.00 0.00 0.00 72 1010.9
20260506152402 66 138 7.0 16.0 0.00 0.00 0.00 74 1010.9
20260506151902 67 199 6.0 23.0 0.00 0.00 0.00 73 1010.9
20260506151401 67 205 7.0 23.0 0.00 0.00 0.00 74 1011.0
20260506150902 66 138 6.0 20.0 0.00 0.00 0.00 76 1011.0
20260506150400 66 206 6.0 17.0 0.00 0.00 0.00 74 1011.0
20260506145902 66 198 6.0 17.0 0.00 0.00 0.00 74 1011.1
20260506145401 65 207 6.0 22.0 0.00 0.00 0.00 76 1011.2
20260506144901 65 203 6.0 22.0 0.00 0.00 0.00 75 1011.2
20260506144405 65 222 5.0 20.0 0.00 0.00 0.00 75 1011.1
20260506144130 65 186 5.0 20.0 0.00 0.00 0.00 76 1010.9
20260506143402 65 228 5.0 18.0 0.00 0.00 0.00 76 1010.9
20260506142902 66 236 5.0 18.0 0.00 0.00 0.00 75 1011.0
20260506142402 65 240 6.0 20.0 0.00 0.00 0.00 76 1011.0
20260506141902 63 198 7.0 20.0 0.00 0.00 0.00 79 1011.2
20260506141401 63 244 5.0 16.0 0.00 0.00 0.00 77 1011.1
20260506140902 64 173 5.0 18.0 0.00 0.00 0.00 77 1011.1
20260506140358 64 173 7.0 18.0 0.00 0.00 0.00 78 1011.0
20260506140124 63 88 6.0 13.0 0.00 0.00 0.00 79 1010.8
20260506135357 63 199 5.0 13.0 0.00 0.00 0.00 78 1010.7
20260506135130 63 166 6.0 15.0 0.00 0.00 0.00 78 1010.7
20260506134357 64 218 6.0 16.0 0.00 0.00 0.00 78 1011.0
20260506134121 64 229 5.0 16.0 0.00 0.00 0.00 77 1011.1
20260506133627 65 215 5.0 17.0 0.00 0.00 0.00 76 1011.0
20260506132857 64 209 6.0 17.0 0.00 0.00 0.00 78 1011.1
20260506132357 64 211 5.0 13.0 0.00 0.00 0.00 79 1011.1
20260506131859 63 209 5.0 20.0 0.00 0.00 0.00 79 1011.2
20260506131356 62 207 5.0 20.0 0.00 0.00 0.00 80 1011.3
20260506130854 62 180 5.0 16.0 0.00 0.00 0.00 80 1011.3
20260506130353 61 232 6.0 16.0 0.00 0.00 0.00 81 1011.4
20260506125855 61 198 7.0 17.0 0.00 0.00 0.00 81 1011.3
20260506125354 60 202 5.0 17.0 0.00 0.00 0.00 81 1011.4
20260506124854 60 167 4.0 15.0 0.00 0.00 0.00 81 1011.3
20260506124354 61 160 4.0 13.0 0.00 0.00 0.00 82 1011.3
20260506123854 60 178 5.0 15.0 0.00 0.00 0.00 82 1011.3
20260506123352 60 232 6.0 15.0 0.00 0.00 0.00 83 1011.2
20260506123114 60 212 6.0 14.0 0.00 0.00 0.00 83 1011.3
20260506122614 60 177 6.0 15.0 0.00 0.00 0.00 83 1011.3
20260506121850 59 215 5.0 15.0 0.00 0.00 0.00 83 1011.4
20260506121349 59 286 4.0 15.0 0.00 0.00 0.00 84 1011.4
20260506120849 59 194 5.0 15.0 0.00 0.00 0.00 84 1011.4
20260506120349 59 234 6.0 15.0 0.00 0.00 0.00 84 1011.5
20260506115851 59 180 5.0 12.0 0.00 0.00 0.00 84 1011.5
20260506115356 58 202 4.0 12.0 0.00 0.00 0.00 84 1011.5
20260506114348 58 217 3.0 8.0 0.00 0.00 0.00 85 1011.6
20260506113847 58 207 4.0 14.0 0.00 0.00 0.00 85 1011.6
20260506113348 57 199 5.0 14.0 0.00 0.00 0.00 85 1011.7
20260506112847 57 195 4.0 11.0 0.00 0.00 0.00 86 1011.8
20260506112347 57 173 4.0 13.0 0.00 0.00 0.00 86 1011.7
20260506111847 57 187 4.0 13.0 0.00 0.00 0.00 86 1011.7
20260506111347 57 185 4.0 11.0 0.00 0.00 0.00 86 1011.8
20260506110847 57 168 4.0 12.0 0.00 0.00 0.00 86 1011.7
20260506110348 57 226 5.0 13.0 0.00 0.00 0.00 86 1011.7
20260506105848 57 186 5.0 16.0 0.00 0.00 0.00 86 1011.6
20260506105347 57 178 4.0 16.0 0.00 0.00 0.00 86 1011.6
20260506104847 57 178 4.0 16.0 0.00 0.00 0.00 86 1011.6
20260506104348 57 214 4.0 13.0 0.00 0.00 0.00 86 1011.6
20260506103846 57 197 4.0 13.0 0.00 0.00 0.00 86 1011.5
20260506103347 57 232 4.0 11.0 0.00 0.00 0.00 86 1011.5
20260506102847 57 224 4.0 12.0 0.00 0.00 0.00 86 1011.4
20260506102347 57 160 4.0 12.0 0.00 0.00 0.00 87 1011.4
20260506101842 57 225 4.0 13.0 0.00 0.00 0.00 86 1011.4
20260506101343 57 182 6.0 20.0 0.00 0.00 0.00 87 1011.3
20260506100345 57 229 6.0 16.0 0.00 0.00 0.00 87 1011.4
20260506095843 57 236 6.0 16.0 0.00 0.00 0.00 87 1011.3
20260506095342 57 204 5.0 15.0 0.00 0.00 0.00 87 1011.2
20260506094844 57 199 5.0 13.0 0.00 0.00 0.00 87 1011.2
20260506094343 57 191 5.0 13.0 0.00 0.00 0.00 87 1011.2
20260506093843 57 158 5.0 13.0 0.00 0.00 0.00 87 1011.3
20260506093336 57 178 5.0 14.0 0.00 0.00 0.00 87 1011.2
20260506092837 57 240 6.0 14.0 0.00 0.00 0.00 87 1011.3
20260506092337 57 198 5.0 14.0 0.00 0.00 0.00 87 1011.3
20260506091837 57 207 5.0 14.0 0.00 0.00 0.00 87 1011.4
20260506091337 57 221 5.0 17.0 0.00 0.00 0.00 87 1011.4
20260506090838 57 146 6.0 17.0 0.00 0.00 0.00 87 1011.4
20260506090337 57 173 6.0 15.0 0.00 0.00 0.00 87 1011.4
20260506085836 57 192 6.0 15.0 0.00 0.00 0.00 87 1011.4
20260506085335 57 207 7.0 23.0 0.00 0.00 0.00 87 1011.5
20260506084835 57 170 7.0 23.0 0.00 0.00 0.00 87 1011.5
20260506084334 57 178 6.0 14.0 0.00 0.00 0.00 87 1011.6
20260506083833 57 198 6.0 22.0 0.00 0.00 0.00 87 1011.6
20260506083332 57 164 6.0 22.0 0.00 0.00 0.00 87 1011.7
20260506082832 57 167 4.0 13.0 0.00 0.00 0.00 86 1011.7
20260506082332 57 190 4.0 11.0 0.00 0.00 0.00 86 1011.7
20260506081831 57 97 5.0 11.0 0.00 0.00 0.00 86 1011.7
20260506081334 57 227 6.0 16.0 0.00 0.00 0.00 86 1011.9
20260506080830 57 235 7.0 17.0 0.00 0.00 0.00 86 1011.8
20260506080330 57 235 7.0 19.0 0.00 0.00 0.00 86 1011.7
20260506080105 58 194 6.0 19.0 0.00 0.00 0.00 86 1011.8
20260506073329 58 204 7.0 18.0 0.00 0.00 0.00 85 1011.7
20260506072830 58 207 7.0 16.0 0.00 0.00 0.00 85 1011.8
20260506072330 58 194 6.0 16.0 0.00 0.00 0.00 85 1011.6
20260506071830 58 186 7.0 22.0 0.00 0.00 0.00 85 1011.6
20260506071329 58 197 8.0 22.0 0.00 0.00 0.00 85 1011.5
20260506070829 58 101 7.0 18.0 0.00 0.00 0.00 85 1011.6
20260506070326 58 220 7.0 20.0 0.00 0.00 0.00 85 1011.5
20260506062311 58 264 7.0 17.0 0.00 0.00 0.00 85 1011.5
20260506061820 58 197 7.0 17.0 0.00 0.00 0.00 84 1011.6
20260506061310 58 221 6.0 14.0 0.00 0.00 0.00 84 1011.6
20260506060810 58 184 6.0 20.0 0.00 0.00 0.00 84 1011.7
20260506060310 58 208 6.0 20.0 0.00 0.00 0.00 84 1011.7
20260506051258 58 217 8.0 20.0 0.00 0.00 0.00 83 1011.9
20260506050758 58 176 7.0 20.0 0.00 0.00 0.00 83 1011.9
20260506050300 58 231 6.0 18.0 0.00 0.00 0.00 83 1011.8
20260506044758 58 194 6.0 23.0 0.00 0.00 0.00 83 1012.2
20260506044258 58 214 6.0 23.0 0.00 0.00 0.00 83 1012.2
20260506044034 58 229 7.0 19.0 0.00 0.00 0.00 83 1012.0
20260506043258 58 218 8.0 19.0 0.00 0.00 0.00 83 1012.0
20260506042758 58 130 8.0 19.0 0.00 0.00 0.00 83 1012.0
20260506042258 58 269 7.0 19.0 0.00 0.00 0.00 83 1012.0
20260506041759 58 174 7.0 16.0 0.00 0.00 0.00 83 1012.0
20260506041259 58 181 7.0 16.0 0.00 0.00 0.00 83 1011.9
20260506040759 58 227 7.0 17.0 0.00 0.00 0.00 83 1011.8
20260506035752 58 221 7.0 25.0 0.00 0.00 0.00 82 1011.9
20260506035249 58 225 7.0 25.0 0.00 0.00 0.00 82 1011.9
20260506034751 58 225 8.0 18.0 0.00 0.00 0.00 82 1011.8
20260506034524 58 175 7.0 19.0 0.00 0.00 0.00 82 1012.0
20260506033749 58 192 6.0 19.0 0.00 0.00 0.00 82 1011.8
20260506033521 58 213 7.0 18.0 0.00 0.00 0.00 81 1011.9
20260506032748 58 212 6.0 18.0 0.00 0.00 0.00 81 1011.8
20260506032251 58 195 7.0 17.0 0.00 0.00 0.00 81 1011.7
20260506031750 58 198 8.0 17.0 0.00 0.00 0.00 80 1011.7
20260506031248 58 244 8.0 19.0 0.00 0.00 0.00 80 1011.7
20260506030748 58 272 9.0 22.0 0.00 0.00 0.00 80 1011.7
20260506030250 59 246 9.0 22.0 0.00 0.00 0.00 79 1011.7
20260506025745 58 179 9.0 22.0 0.00 0.00 0.00 79 1011.6
20260506025512 58 235 8.0 22.0 0.00 0.00 0.00 79 1011.5
20260506025019 58 202 7.0 22.0 0.00 0.00 0.00 79 1011.5
20260506024245 58 219 6.0 19.0 0.00 0.00 0.00 79 1011.6
20260506023745 58 54 7.0 19.0 0.00 0.00 0.00 79 1011.5
20260506023245 58 186 7.0 18.0 0.00 0.00 0.00 79 1011.5
20260506022744 58 212 6.0 16.0 0.00 0.00 0.00 79 1011.5
20260506022247 58 260 7.0 19.0 0.00 0.00 0.00 79 1011.5
20260506021746 58 194 7.0 19.0 0.00 0.00 0.00 79 1011.6
20260506021246 58 178 6.0 17.0 0.00 0.00 0.00 79 1011.7
20260506020744 58 167 6.0 17.0 0.00 0.00 0.00 78 1011.6
20260506020245 58 180 7.0 18.0 0.00 0.00 0.00 78 1011.6
20260506015746 58 186 7.0 18.0 0.00 0.00 0.00 78 1011.6
20260506015245 58 256 6.0 14.0 0.00 0.00 0.00 78 1011.5
20260506014743 58 246 7.0 22.0 0.00 0.00 0.00 77 1011.6
20260506014533 58 167 7.0 22.0 0.00 0.00 0.00 77 1011.6
20260506013741 58 189 7.0 23.0 0.00 0.00 0.00 77 1011.7
20260506013240 58 177 7.0 24.0 0.00 0.00 0.00 77 1011.5
20260506012741 58 228 7.0 24.0 0.00 0.00 0.00 77 1011.5
20260506012241 58 221 7.0 19.0 0.00 0.00 0.00 77 1011.5
20260506011741 58 211 7.0 19.0 0.00 0.00 0.00 77 1011.3
20260506011240 58 249 8.0 19.0 0.00 0.00 0.00 77 1011.3
20260506010734 58 216 9.0 24.0 0.00 0.00 0.00 77 1011.2
20260506010456 58 245 9.0 24.0 0.00 0.00 0.00 77 1011.1
20260506005729 58 193 8.0 18.0 0.00 0.00 0.00 77 1011.0
20260506005230 58 235 7.0 18.0 0.00 0.00 0.00 77 1011.0
20260506004729 58 180 8.0 22.0 0.00 0.00 0.00 77 1011.1
20260506004230 58 190 8.0 22.0 0.00 0.00 0.00 78 1010.9
20260506004000 58 211 7.0 20.0 0.00 0.00 0.00 78 1010.9
20260506003501 58 198 8.0 20.0 0.00 0.00 0.00 78 1010.7
20260506002729 58 238 8.0 20.0 0.00 0.00 0.00 78 1010.5
20260506002227 58 208 7.0 20.0 0.00 0.00 0.00 78 1010.5
20260506001726 58 173 7.0 19.0 0.00 0.00 0.00 78 1010.6
20260506001224 58 204 7.0 19.0 0.00 0.00 0.00 78 1010.3
20260506000726 58 196 7.0 21.0 0.00 0.00 0.00 78 1010.4
20260506000226 58 187 8.0 21.0 0.00 0.00 0.00 78 1010.1
20260505235725 58 223 8.0 19.0 0.00 0.00 0.00 77 1009.8
20260505235223 58 228 7.0 19.0 0.00 0.00 0.00 77 1009.4
20260505234732 58 184 7.0 22.0 0.00 0.00 0.00 77 1009.5
20260505233722 59 229 7.0 20.0 0.00 0.00 0.00 77 1009.6
20260505233222 59 202 7.0 17.0 0.00 0.00 0.00 76 1009.6
20260505232716 59 209 7.0 17.0 0.00 0.00 0.00 76 1009.7
20260505232212 59 219 8.0 19.0 0.00 0.00 0.00 76 1009.7
20260505231712 59 190 9.0 20.0 0.00 0.00 0.00 76 1009.8
20260505231214 59 277 7.0 20.0 0.00 0.00 0.00 76 1009.9
20260505230948 59 192 6.0 14.0 0.00 0.00 0.00 76 1009.9
20260505230212 59 204 6.0 14.0 0.00 0.00 0.00 76 1009.9
20260505225712 59 177 6.0 17.0 0.00 0.00 0.00 76 1009.9
20260505225213 59 209 5.0 17.0 0.00 0.00 0.00 76 1009.9
20260505224712 59 205 6.0 17.0 0.00 0.00 0.00 76 1009.8
20260505224214 59 196 7.0 16.0 0.00 0.00 0.00 76 1009.9
20260505223712 59 201 6.0 17.0 0.00 0.00 0.00 76 1009.8
20260505223211 59 209 6.0 17.0 0.00 0.00 0.00 76 1009.6
20260505222713 59 204 6.0 17.0 0.00 0.00 0.00 76 1009.7
20260505222212 59 207 6.0 17.0 0.00 0.00 0.00 76 1009.5